Location: Rounton
(54.4000°N, 1.3500°W)
Time: 14:32:34
(UTC+00:00)

Transit 4A - Pass Details

Date: 05 December 2021
Orbit: 864 x 981 km, 66.8° (Epoch: 18 January)

Event Time Altitude Azimuth Distance (km) Brightness Sun altitude
Rises 05:03:06 0° 314° (NW) 3,616 - -25.7°
Reaches altitude 10° 05:06:09 10° 300° (WNW) 2,686 - -25.2°
Maximum altitude 05:10:49 22° 252° (WSW) 1,957 - -24.5°
Exits shadow 05:15:00 12° 207° (SSW) 2,577 10.0 -23.9°
Drops below altitude 10° 05:15:32 10° 204° (SSW) 2,716 10.1 -23.8°
Sets 05:18:39 0° 190° (S) 3,667 11.0 -23.4°
